Regional Weather Roundup
Issued by NWS Green Bay, WI

Home | Current Version | Previous Version | Text Only | Print | Product List | Glossary On
Versions: 1 2 3 4 5 6 7 8 9 10 11 12 13 14 15 16 17 18 19 20 21 22 23 24 25 26 27 28 29 30 31 32 33 34 35 36 37 38 39 40 41 42 43 44 45 46 47 48 49 50
000
ASUS43 KGRB 271310
RWRGRB

NORTH-CENTRAL AND NORTHEAST WISCONSIN REGIONAL WEATHER ROUNDUP
NATIONAL WEATHER SERVICE GREEN BAY WI
800 AM CDT WED AUG 27 2014

WIZ005-009-010>012-018-019-271400-
NORTH CENTRAL WISCONSIN

CITY           SKY/WX    TMP DP  RH WIND       PRES   REMARKS
IRONWOOD       NOT AVBL
MANITOWISH WTR PTSUNNY   53  53 100 CALM      30.20S
ARBOR VITAE    SUNNY     57  55  93 N5        30.20R
EAGLE RIVER    PTSUNNY   55  53  94 NW5       30.20R
LAND O LAKES   MOSUNNY   55  53  93 N3        30.21R
RHINELANDER    MOSUNNY   56  54  93 CALM      30.20S
PHILLIPS       SUNNY     55  53  92 NW6       30.21R
ANTIGO         PTSUNNY   57  55  93 CALM      30.20S
TOMAHAWK       SUNNY     55  54  97 CALM      30.20S
MERRILL        SUNNY     56  56 100 CALM      30.20R
$$

WIZ013-073-271400-
NORTHEAST WISCONSIN

CITY           SKY/WX    TMP DP  RH WIND       PRES   REMARKS
IRON MOUNTAIN  CLOUDY    55  52  89 NW3       30.18R
MARINETTE      CLOUDY    57  52  82 CALM      30.17F
OCONTO         MOSUNNY   59  55  87 CALM      30.18S
$$

WIZ017-030-035>037-045-271400-
CENTRAL WISCONSIN

CITY           SKY/WX    TMP DP  RH WIND       PRES   REMARKS
MEDFORD        SUNNY     56  55  98 CALM      30.20S
WAUSAU         MOSUNNY   59  57  93 CALM      30.19R
MOSINEE        SUNNY     61  55  82 CALM      30.21R
MARSHFIELD     SUNNY     62  56  80 CALM      30.20R
WISC RAPIDS    MOSUNNY   63  53  70 CALM      30.21R
STEVENS POINT  MOSUNNY   58  54  86 CALM      30.20R
WAUPACA        MOSUNNY   62  57  83 N3        30.19R
SHAWANO        MOSUNNY   61  55  82 CALM      30.19S
CLINTONVILLE   MOSUNNY   59  54  82 N5        30.19R
$$

WIZ038-039-048-051-271400-
FOX VALLEY

CITY           SKY/WX    TMP DP  RH WIND       PRES   REMARKS
NWS GREEN BAY  MOSUNNY   62  55  77 N6        30.18S
APPLETON       MOSUNNY   59  54  82 N8        30.18S
OSHKOSH        MOSUNNY   65  59  81 SE8       30.17R
FOND DU LAC    CLOUDY    63  58  83 CALM      30.17S
$$

WIZ022-050-052-271400-
EAST CENTRAL WISCONSIN

CITY           SKY/WX    TMP DP  RH WIND       PRES   REMARKS
STURGEON BAY   PTSUNNY   61  54  77 CALM      30.19R
MANITOWOC      LGT RAIN  62  60  93 CALM      30.17F
SHEBOYGAN      PTSUNNY   64  58  80 E7        30.15F
$$

LMZ563-521-522-541>543-271400-
LAKESHORE

STATION/POSITION TIME  TEMP    WIND        PRES    VSBY  WAVE
                       AIR SEA DIR/SP/G                  HT/PER
                 (UTC) (F)     (DEG/KT/KT) (MB)    (MI)  (FT/S)
SHEBOYGAN LKSHOR 1300   65 66   80/ 12/ 13 1021.1F
KEWAUNEE LKSHORE 1300   63      70/  1/  3 1020.9R
TWO RIVERS CG    1200      64              1021.6      6   0
NORTHPORT PIER   1300   60      CALM  /  1 1021.3S
N MID LAKE BUOY  1300   61 65  360/  2/  4 1021.5R         1/ 3
S GREEN BAY BUOY 1300   63     VRB  8      1022.9S
SISTER BAY LKSHO 1300   62        CALM       N/A
STURGEON BAY CG  1200   58 64  310/  4     1021.9      6   1
CHAMBERS ISLAND  1300   60     250/  1/  5 1022.0S
MENOMINEE LKSHOR 1300   58     290/  5/  5 1022.4F
$$



USA.gov is the U.S. government's official web portal to all federal, state and local government web resources and services.